Location: Arrington
(35.8681°N, 86.7092°W)
Time: 14:15:27
(UTC+00:00)

ATLAS 2AS CENTAUR R/B - Pass Details

Date: 29 February 2020
Orbit: 929 x 1283 km, 63.7° (Epoch: 27 March)

Event Time Altitude Azimuth Distance (km) Brightness Sun altitude
Rises 04:03:55 0° 260° (W) 4,215 6.2 -51.5°
Reaches altitude 10° 04:07:38 10° 276° (W) 3,272 5.6 -52.1°
Enters shadow 04:11:07 19° 301° (WNW) 2,681 5.1 -52.6°
